Time,TemperatureF,DewpointF,PressureIn,WindDirection,WindDirectionDegrees,WindSpeedMPH,WindSpeedGustMPH,Humidity,HourlyPrecipIn,Conditions,Clouds,dailyrainin,SolarRadiationWatts/m^2,SoftwareType,DateUTC
2013-08-25 00:00:00,63.7,58.1,30.33,East,90,2.6,2.6,82,0.00,CLR,,0.00,0.0,WeatherDisplay:10.37,2013-08-25 04:00:00,
2013-08-25 00:01:00,63.7,58.1,30.33,ENE,68,2.3,2.3,82,0.00,CLR,,0.00,0.0,WeatherDisplay:10.37,2013-08-25 04:01:00,
2013-08-25 00:02:00,63.7,57.7,30.33,ENE,68,2.3,2.3,81,0.00,CLR,,0.00,0.0,WeatherDisplay:10.37,2013-08-25 04:02:00,
2013-08-25 00:07:00,63.9,57.6,30.33,ENE,68,0.9,0.0,80,0.00,CLR,,0.00,0.0,WeatherDisplay:10.37,2013-08-25 04:07:00,
2013-08-25 00:12:00,63.9,57.6,30.33,ENE,68,2.3,2.3,80,0.00,CLR,,0.00,0.0,WeatherDisplay:10.37,2013-08-25 04:12:00,
2013-08-25 00:17:00,63.7,57.4,30.33,ENE,68,1.2,0.0,80,0.00,CLR,,0.00,0.0,WeatherDisplay:10.37,2013-08-25 04:17:00,
2013-08-25 00:22:00,63.5,57.6,30.33,ESE,112,1.4,1.4,81,0.00,CLR,,0.00,0.0,WeatherDisplay:10.37,2013-08-25 04:22:00,
2013-08-25 00:27:00,63.3,57.4,30.33,ENE,68,2.3,2.3,81,0.00,CLR,,0.00,0.0,WeatherDisplay:10.37,2013-08-25 04:27:00,
2013-08-25 00:32:00,63.3,57.4,30.33,ENE,68,2.3,2.3,81,0.00,CLR,,0.00,0.0,WeatherDisplay:10.37,2013-08-25 04:32:00,
2013-08-25 00:37:00,63.3,57.4,30.33,ESE,112,0.0,0.0,81,0.00,CLR,,0.00,0.0,WeatherDisplay:10.37,2013-08-25 04:37:00,
2013-08-25 00:42:00,63.3,57.7,30.33,ENE,68,2.3,2.3,82,0.00,CLR,,0.00,0.0,WeatherDisplay:10.37,2013-08-25 04:42:00,
2013-08-25 00:47:00,63.1,57.2,30.33,ENE,68,0.0,0.0,81,0.00,CLR,,0.00,0.0,WeatherDisplay:10.37,2013-08-25 04:47:00,
2013-08-25 00:52:00,63.0,57.4,30.33,ESE,112,2.0,2.0,82,0.00,CLR,,0.00,0.0,WeatherDisplay:10.37,2013-08-25 04:52:00,
2013-08-25 00:57:00,63.0,57.4,30.33,ENE,68,1.2,1.2,82,0.00,CLR,,0.00,0.0,WeatherDisplay:10.37,2013-08-25 04:57:00,
2013-08-25 01:02:00,63.0,57.4,30.36,ESE,112,1.6,1.6,82,0.00,CLR,,0.00,0.0,WeatherDisplay:10.37,2013-08-25 05:02:00,
2013-08-25 01:07:00,63.0,57.4,30.36,ENE,68,2.3,2.3,82,0.00,CLR,,0.00,0.0,WeatherDisplay:10.37,2013-08-25 05:07:00,
2013-08-25 01:12:00,63.0,57.4,30.36,East,90,1.2,1.2,82,0.00,CLR,,0.00,0.0,WeatherDisplay:10.37,2013-08-25 05:12:00,
2013-08-25 01:17:00,63.0,57.4,30.33,ENE,68,2.3,2.3,82,0.00,CLR,,0.00,0.0,WeatherDisplay:10.37,2013-08-25 05:17:00,
2013-08-25 01:22:00,63.0,57.4,30.33,ENE,68,2.3,2.3,82,0.00,CLR,,0.00,0.0,WeatherDisplay:10.37,2013-08-25 05:22:00,
2013-08-25 01:27:00,63.1,57.6,30.33,East,90,1.6,1.6,82,0.00,CLR,,0.00,0.0,WeatherDisplay:10.37,2013-08-25 05:27:00,
2013-08-25 01:32:00,63.0,57.0,30.33,ESE,112,2.3,2.3,81,0.00,CLR,,0.00,0.0,WeatherDisplay:10.37,2013-08-25 05:32:00,
2013-08-25 01:37:00,63.0,57.4,30.33,East,90,2.0,2.0,82,0.00,CLR,,0.00,0.0,WeatherDisplay:10.37,2013-08-25 05:37:00,
2013-08-25 01:42:00,62.6,56.7,30.33,ENE,68,1.2,0.0,81,0.00,CLR,,0.00,0.0,WeatherDisplay:10.37,2013-08-25 05:42:00,
2013-08-25 01:47:00,62.8,56.9,30.33,ENE,68,1.2,1.2,81,0.00,CLR,,0.00,0.0,WeatherDisplay:10.37,2013-08-25 05:47:00,
2013-08-25 01:52:00,62.6,57.0,30.33,ENE,68,1.4,0.0,82,0.00,CLR,,0.00,0.0,WeatherDisplay:10.37,2013-08-25 05:52:00,
2013-08-25 01:57:00,62.4,56.9,30.33,ENE,68,1.2,1.2,82,0.00,CLR,,0.00,0.0,WeatherDisplay:10.37,2013-08-25 05:57:00,
2013-08-25 02:02:00,62.2,56.7,30.33,ENE,68,2.0,0.0,82,0.00,CLR,,0.00,0.0,WeatherDisplay:10.37,2013-08-25 06:02:00,
2013-08-25 02:07:00,62.4,56.9,30.33,ENE,68,2.3,2.3,82,0.00,CLR,,0.00,0.0,WeatherDisplay:10.37,2013-08-25 06:07:00,
2013-08-25 02:12:00,62.4,56.9,30.33,ENE,68,1.6,1.6,82,0.00,CLR,,0.00,0.0,WeatherDisplay:10.37,2013-08-25 06:12:00,
2013-08-25 02:17:00,62.4,56.9,30.33,ENE,68,2.6,2.6,82,0.00,CLR,,0.00,0.0,WeatherDisplay:10.37,2013-08-25 06:17:00,
2013-08-25 02:22:00,62.8,56.9,30.33,East,90,2.3,2.3,81,0.00,CLR,,0.00,0.0,WeatherDisplay:10.37,2013-08-25 06:22:00,
2013-08-25 02:27:00,62.8,56.9,30.33,ENE,68,2.3,2.3,81,0.00,CLR,,0.00,0.0,WeatherDisplay:10.37,2013-08-25 06:27:00,
2013-08-25 02:32:00,63.1,56.5,30.33,ENE,68,2.3,2.6,79,0.00,CLR,,0.00,0.0,WeatherDisplay:10.37,2013-08-25 06:32:00,
2013-08-25 02:37:00,63.1,56.5,30.33,ENE,68,2.3,2.3,79,0.00,CLR,,0.00,0.0,WeatherDisplay:10.37,2013-08-25 06:37:00,
2013-08-25 02:43:00,62.8,56.5,30.33,ENE,68,1.2,1.2,80,0.00,CLR,,0.00,0.0,WeatherDisplay:10.37,2013-08-25 06:43:00,
2013-08-25 02:48:00,62.6,56.3,30.33,ESE,112,0.0,0.0,80,0.00,CLR,,0.00,0.0,WeatherDisplay:10.37,2013-08-25 06:48:00,
2013-08-25 02:53:00,62.6,56.3,30.33,ENE,68,2.3,2.3,80,0.00,CLR,,0.00,0.0,WeatherDisplay:10.37,2013-08-25 06:53:00,
2013-08-25 02:58:00,62.8,56.2,30.33,ENE,68,2.3,2.3,79,0.00,CLR,,0.00,0.0,WeatherDisplay:10.37,2013-08-25 06:58:00,
2013-08-25 03:03:00,62.6,56.3,30.33,ENE,68,2.4,2.4,80,0.00,CLR,,0.00,0.0,WeatherDisplay:10.37,2013-08-25 07:03:00,
2013-08-25 03:08:00,62.6,56.3,30.33,ESE,112,2.3,2.3,80,0.00,CLR,,0.00,0.0,WeatherDisplay:10.37,2013-08-25 07:08:00,
2013-08-25 03:13:00,62.8,56.2,30.33,ENE,68,2.3,2.3,79,0.00,CLR,,0.00,0.0,WeatherDisplay:10.37,2013-08-25 07:13:00,
2013-08-25 03:18:00,62.6,56.3,30.33,East,90,2.3,2.3,80,0.00,CLR,,0.00,0.0,WeatherDisplay:10.37,2013-08-25 07:18:00,
2013-08-25 03:23:00,62.4,56.2,30.33,ENE,68,2.3,2.3,80,0.00,CLR,,0.00,0.0,WeatherDisplay:10.37,2013-08-25 07:23:00,
2013-08-25 03:28:00,62.4,55.8,30.33,ENE,68,1.2,0.0,79,0.00,CLR,,0.00,0.0,WeatherDisplay:10.37,2013-08-25 07:28:00,
2013-08-25 03:33:00,62.2,56.0,30.33,ENE,68,0.0,0.0,80,0.00,CLR,,0.00,0.0,WeatherDisplay:10.37,2013-08-25 07:33:00,
2013-08-25 03:38:00,62.1,55.5,30.33,ESE,112,0.0,0.0,79,0.00,CLR,,0.00,0.0,WeatherDisplay:10.37,2013-08-25 07:38:00,
2013-08-25 03:43:00,61.9,55.6,30.33,ENE,68,0.0,0.0,80,0.00,CLR,,0.00,0.0,WeatherDisplay:10.37,2013-08-25 07:43:00,
2013-08-25 03:48:00,61.9,55.6,30.33,ESE,112,1.2,1.2,80,0.00,CLR,,0.00,0.0,WeatherDisplay:10.37,2013-08-25 07:48:00,
2013-08-25 03:53:00,61.7,55.5,30.33,ENE,68,0.0,0.0,80,0.00,CLR,,0.00,0.0,WeatherDisplay:10.37,2013-08-25 07:53:00,
2013-08-25 03:58:00,61.5,55.3,30.33,ESE,112,2.3,0.0,80,0.00,CLR,,0.00,0.0,WeatherDisplay:10.37,2013-08-25 07:58:00,
2013-08-25 04:03:00,61.5,55.3,30.33,SSE,158,0.0,0.0,80,0.00,CLR,,0.00,0.0,WeatherDisplay:10.37,2013-08-25 08:03:00,
2013-08-25 04:08:00,61.5,54.9,30.33,ENE,68,2.3,2.3,79,0.00,CLR,,0.00,0.0,WeatherDisplay:10.37,2013-08-25 08:08:00,
2013-08-25 04:13:00,61.7,55.5,30.36,ESE,112,1.2,0.0,80,0.00,CLR,,0.00,0.0,WeatherDisplay:10.37,2013-08-25 08:13:00,
2013-08-25 04:18:00,61.5,55.3,30.36,ENE,68,1.2,0.0,80,0.00,CLR,,0.00,0.0,WeatherDisplay:10.37,2013-08-25 08:18:00,
2013-08-25 04:23:00,61.3,55.1,30.36,East,90,1.2,1.2,80,0.00,CLR,,0.00,0.0,WeatherDisplay:10.37,2013-08-25 08:23:00,
2013-08-25 04:28:00,61.2,54.9,30.36,ENE,68,1.2,0.0,80,0.00,CLR,,0.00,0.0,WeatherDisplay:10.37,2013-08-25 08:28:00,
2013-08-25 04:33:00,61.2,55.3,30.33,ENE,68,1.2,0.0,81,0.00,CLR,,0.00,0.0,WeatherDisplay:10.37,2013-08-25 08:33:00,
2013-08-25 04:38:00,61.0,55.1,30.33,ENE,68,0.0,0.0,81,0.00,CLR,,0.00,0.0,WeatherDisplay:10.37,2013-08-25 08:38:00,
2013-08-25 04:43:00,60.6,54.8,30.33,ENE,68,0.0,0.0,81,0.00,CLR,,0.00,0.0,WeatherDisplay:10.37,2013-08-25 08:43:00,
2013-08-25 04:48:00,60.4,54.9,30.33,ENE,68,0.0,0.0,82,0.00,CLR,,0.00,0.0,WeatherDisplay:10.37,2013-08-25 08:48:00,
2013-08-25 04:53:00,60.4,54.9,30.33,ENE,68,0.0,0.0,82,0.00,CLR,,0.00,0.0,WeatherDisplay:10.37,2013-08-25 08:53:00,
2013-08-25 04:58:00,60.4,54.9,30.36,ESE,112,1.2,1.2,82,0.00,CLR,,0.00,0.0,WeatherDisplay:10.37,2013-08-25 08:58:00,
2013-08-25 05:03:00,60.8,55.6,30.36,ENE,68,2.3,2.3,83,0.00,CLR,,0.00,0.0,WeatherDisplay:10.37,2013-08-25 09:03:00,
2013-08-25 05:08:00,61.0,55.8,30.36,ESE,112,2.3,0.0,83,0.00,CLR,,0.00,0.0,WeatherDisplay:10.37,2013-08-25 09:08:00,
2013-08-25 05:13:00,60.8,55.6,30.36,ESE,112,1.2,0.0,83,0.00,CLR,,0.00,0.0,WeatherDisplay:10.37,2013-08-25 09:13:00,
2013-08-25 05:18:00,60.6,55.8,30.36,ESE,112,0.0,0.0,84,0.00,CLR,,0.00,0.0,WeatherDisplay:10.37,2013-08-25 09:18:00,
2013-08-25 05:23:00,60.4,55.6,30.36,SE,135,1.2,0.0,84,0.00,CLR,,0.00,0.0,WeatherDisplay:10.37,2013-08-25 09:23:00,
2013-08-25 05:28:00,60.4,55.9,30.36,East,90,1.4,1.4,85,0.00,CLR,,0.00,0.0,WeatherDisplay:10.37,2013-08-25 09:28:00,
2013-08-25 05:33:00,60.4,56.2,30.36,East,90,2.3,2.3,86,0.00,CLR,,0.00,0.0,WeatherDisplay:10.37,2013-08-25 09:33:00,
2013-08-25 05:38:00,60.1,56.2,30.36,East,90,1.2,0.0,87,0.00,CLR,,0.00,0.0,WeatherDisplay:10.37,2013-08-25 09:38:00,
2013-08-25 05:43:00,59.9,56.0,30.36,East,90,0.0,0.0,87,0.00,CLR,,0.00,0.0,WeatherDisplay:10.37,2013-08-25 09:43:00,
2013-08-25 05:48:00,59.5,55.7,30.36,East,90,0.0,0.0,87,0.00,CLR,,0.00,0.0,WeatherDisplay:10.37,2013-08-25 09:48:00,
2013-08-25 05:53:00,59.2,55.3,30.36,East,90,0.0,0.0,87,0.00,CLR,,0.00,0.0,WeatherDisplay:10.37,2013-08-25 09:53:00,
2013-08-25 05:58:00,59.0,55.4,30.36,East,90,0.0,0.0,88,0.00,CLR,,0.00,0.0,WeatherDisplay:10.37,2013-08-25 09:58:00,
2013-08-25 06:03:00,58.8,56.2,30.36,ENE,68,0.0,0.0,91,0.00,CLR,,0.00,0.0,WeatherDisplay:10.37,2013-08-25 10:03:00,
2013-08-25 06:08:00,58.5,55.2,30.36,ENE,68,0.0,0.0,89,0.00,CLR,,0.00,0.0,WeatherDisplay:10.37,2013-08-25 10:08:00,
2013-08-25 06:13:00,58.5,55.2,30.36,ENE,68,0.0,0.0,89,0.00,CLR,,0.00,0.0,WeatherDisplay:10.37,2013-08-25 10:13:00,
2013-08-25 06:18:00,58.1,54.9,30.36,ENE,68,0.0,0.0,89,0.00,CLR,,0.00,0.0,WeatherDisplay:10.37,2013-08-25 10:18:00,
2013-08-25 06:23:00,57.9,55.0,30.36,ENE,68,0.0,0.0,90,0.00,CLR,,0.00,0.0,WeatherDisplay:10.37,2013-08-25 10:23:00,
2013-08-25 06:28:00,57.9,55.0,30.36,ENE,68,0.0,0.0,90,0.00,CLR,,0.00,0.0,WeatherDisplay:10.37,2013-08-25 10:28:00,
2013-08-25 06:33:00,57.9,55.0,30.36,ESE,112,0.0,0.0,90,0.00,CLR,,0.00,0.0,WeatherDisplay:10.37,2013-08-25 10:33:00,
2013-08-25 06:38:00,57.7,55.1,30.36,ESE,112,0.0,0.0,91,0.00,CLR,,0.00,0.0,WeatherDisplay:10.37,2013-08-25 10:38:00,
2013-08-25 06:43:00,57.7,55.4,30.36,ESE,112,0.0,0.0,92,0.00,CLR,,0.00,0.0,WeatherDisplay:10.37,2013-08-25 10:43:00,
2013-08-25 06:48:00,57.9,55.6,30.36,ESE,112,1.4,0.0,92,0.00,CLR,,0.00,0.0,WeatherDisplay:10.37,2013-08-25 10:48:00,
2013-08-25 06:53:00,58.5,56.4,30.36,ESE,112,2.3,2.3,93,0.00,CLR,,0.00,0.0,WeatherDisplay:10.37,2013-08-25 10:53:00,
2013-08-25 06:58:00,58.6,56.6,30.36,ESE,112,2.4,2.4,93,0.00,CLR,,0.00,0.0,WeatherDisplay:10.37,2013-08-25 10:58:00,
2013-08-25 07:03:00,59.2,57.2,30.36,ESE,112,2.4,2.4,93,0.00,CLR,,0.00,0.0,WeatherDisplay:10.37,2013-08-25 11:03:00,
2013-08-25 07:08:00,59.5,57.2,30.36,ESE,112,2.3,2.3,92,0.00,CLR,,0.00,0.0,WeatherDisplay:10.37,2013-08-25 11:08:00,
2013-08-25 07:13:00,59.5,57.2,30.36,East,90,0.0,0.0,92,0.00,CLR,,0.00,0.0,WeatherDisplay:10.37,2013-08-25 11:13:00,
2013-08-25 07:18:00,59.5,56.9,30.36,East,90,0.0,0.0,91,0.00,CLR,,0.00,0.0,WeatherDisplay:10.37,2013-08-25 11:18:00,
2013-08-25 07:23:00,59.9,57.3,30.36,ENE,68,1.2,0.0,91,0.00,CLR,,0.00,0.0,WeatherDisplay:10.37,2013-08-25 11:23:00,
2013-08-25 07:28:00,60.6,58.0,30.39,ESE,112,2.3,2.3,91,0.00,CLR,,0.00,0.0,WeatherDisplay:10.37,2013-08-25 11:28:00,
2013-08-25 07:33:00,61.3,58.4,30.39,ENE,68,0.0,0.0,90,0.00,CLR,,0.00,0.0,WeatherDisplay:10.37,2013-08-25 11:33:00,
2013-08-25 07:38:00,61.7,58.4,30.39,ENE,68,0.0,0.0,89,0.00,CLR,,0.00,0.0,WeatherDisplay:10.37,2013-08-25 11:38:00,
2013-08-25 07:43:00,63.0,59.3,30.39,East,90,0.0,0.0,88,0.00,CLR,,0.00,0.0,WeatherDisplay:10.37,2013-08-25 11:43:00,
2013-08-25 07:48:00,63.9,59.6,30.39,ENE,68,1.2,1.2,86,0.00,CLR,,0.00,0.0,WeatherDisplay:10.37,2013-08-25 11:48:00,
2013-08-25 07:53:00,64.4,59.8,30.39,SE,135,2.3,2.3,85,0.00,CLR,,0.00,0.0,WeatherDisplay:10.37,2013-08-25 11:53:00,
2013-08-25 07:58:00,65.7,60.0,30.39,ESE,112,2.4,2.4,82,0.00,CLR,,0.00,0.0,WeatherDisplay:10.37,2013-08-25 11:58:00,
2013-08-25 08:03:00,66.2,60.2,30.39,East,90,2.3,2.3,81,0.00,CLR,,0.00,0.0,WeatherDisplay:10.37,2013-08-25 12:03:00,
2013-08-25 08:08:00,66.7,60.0,30.39,ESE,112,3.5,3.5,79,0.00,CLR,,0.00,0.0,WeatherDisplay:10.37,2013-08-25 12:08:00,
2013-08-25 08:13:00,67.5,60.7,30.39,ESE,112,2.3,2.3,79,0.00,CLR,,0.00,0.0,WeatherDisplay:10.37,2013-08-25 12:13:00,
2013-08-25 08:18:00,68.2,60.7,30.39,ENE,68,2.3,2.3,77,0.00,CLR,,0.00,0.0,WeatherDisplay:10.37,2013-08-25 12:18:00,
2013-08-25 08:23:00,68.9,61.0,30.39,ENE,68,2.3,2.3,76,0.00,CLR,,0.00,0.0,WeatherDisplay:10.37,2013-08-25 12:23:00,
2013-08-25 08:28:00,69.8,61.1,30.39,ESE,112,2.3,2.3,74,0.00,CLR,,0.00,0.0,WeatherDisplay:10.37,2013-08-25 12:28:00,
2013-08-25 08:33:00,70.2,61.5,30.39,ENE,68,2.3,2.3,74,0.00,CLR,,0.00,0.0,WeatherDisplay:10.37,2013-08-25 12:33:00,
2013-08-25 08:38:00,71.1,61.6,30.39,ESE,112,2.0,2.0,72,0.00,CLR,,0.00,0.0,WeatherDisplay:10.37,2013-08-25 12:38:00,
2013-08-25 08:43:00,72.0,62.4,30.39,ESE,112,1.2,0.0,72,0.00,CLR,,0.00,0.0,WeatherDisplay:10.37,2013-08-25 12:43:00,
2013-08-25 08:49:00,72.9,63.3,30.39,ESE,112,0.0,0.0,72,0.00,CLR,,0.00,0.0,WeatherDisplay:10.37,2013-08-25 12:49:00,
2013-08-25 08:54:00,73.2,63.2,30.39,SSW,202,2.6,0.0,71,0.00,CLR,,0.00,0.0,WeatherDisplay:10.37,2013-08-25 12:54:00,
2013-08-25 08:59:00,73.6,62.4,30.39,SSE,158,3.5,3.5,68,0.00,CLR,,0.00,0.0,WeatherDisplay:10.37,2013-08-25 12:59:00,
2013-08-25 09:04:00,74.5,62.8,30.39,ESE,112,2.3,2.3,67,0.00,CLR,,0.00,0.0,WeatherDisplay:10.37,2013-08-25 13:04:00,
2013-08-25 09:09:00,75.0,63.3,30.39,ESE,112,2.3,2.3,67,0.00,CLR,,0.00,0.0,WeatherDisplay:10.37,2013-08-25 13:09:00,
2013-08-25 09:14:00,75.0,62.9,30.39,SSE,158,2.3,2.3,66,0.00,CLR,,0.00,0.0,WeatherDisplay:10.37,2013-08-25 13:14:00,
2013-08-25 09:19:00,75.2,62.2,30.39,SSE,158,3.5,3.5,64,0.00,CLR,,0.00,100.0,WeatherDisplay:10.37,2013-08-25 13:19:00,
2013-08-25 09:24:00,75.7,62.7,30.39,South,180,2.6,2.6,64,0.00,CLR,,0.00,100.0,WeatherDisplay:10.37,2013-08-25 13:24:00,
2013-08-25 09:29:00,75.7,61.8,30.39,SSW,202,3.1,3.1,62,0.00,CLR,,0.00,200.0,WeatherDisplay:10.37,2013-08-25 13:29:00,
2013-08-25 09:34:00,75.9,61.5,30.39,South,180,4.6,4.6,61,0.00,CLR,,0.00,200.0,WeatherDisplay:10.37,2013-08-25 13:34:00,
2013-08-25 09:39:00,76.3,62.3,30.39,SSE,158,3.6,3.6,62,0.00,CLR,,0.00,200.0,WeatherDisplay:10.37,2013-08-25 13:39:00,
2013-08-25 09:44:00,77.0,62.0,30.39,SSW,202,2.4,2.4,60,0.00,CLR,,0.00,300.0,WeatherDisplay:10.37,2013-08-25 13:44:00,
2013-08-25 09:49:00,77.9,63.4,30.39,SSW,202,2.3,2.3,61,0.00,CLR,,0.00,400.0,WeatherDisplay:10.37,2013-08-25 13:49:00,
2013-08-25 09:54:00,78.1,62.6,30.39,ESE,112,4.6,4.6,59,0.00,CLR,,0.00,400.0,WeatherDisplay:10.37,2013-08-25 13:54:00,
2013-08-25 09:59:00,77.2,60.3,30.39,SSW,202,5.8,5.8,56,0.00,CLR,,0.00,600.0,WeatherDisplay:10.37,2013-08-25 13:59:00,
2013-08-25 10:04:00,79.2,63.1,30.39,SSW,202,2.6,2.6,58,0.00,CLR,,0.00,600.0,WeatherDisplay:10.37,2013-08-25 14:04:00,
2013-08-25 10:09:00,78.6,60.6,30.39,SSW,202,5.4,5.4,54,0.00,CLR,,0.00,800.0,WeatherDisplay:10.37,2013-08-25 14:09:00,
2013-08-25 10:14:00,79.0,61.4,30.36,SSW,202,3.5,3.5,55,0.00,CLR,,0.00,900.0,WeatherDisplay:10.37,2013-08-25 14:14:00,
2013-08-25 10:20:00,80.1,61.9,30.36,SW,225,3.6,3.6,54,0.00,CLR,,0.00,1000.0,WeatherDisplay:10.37,2013-08-25 14:20:00,
2013-08-25 10:25:00,80.2,61.6,30.36,SE,135,4.6,4.6,53,0.00,CLR,,0.00,1100.0,WeatherDisplay:10.37,2013-08-25 14:25:00,
2013-08-25 10:30:00,80.2,62.1,30.39,SSW,201,2.0,6.0,54,0.00,CLR,,0.00,1200.0,WeatherDisplay:10.37,2013-08-25 14:30:00,
2013-08-25 10:35:00,80.8,60.4,30.39,WSW,248,4.6,4.6,50,0.00,CLR,,0.00,1200.0,WeatherDisplay:10.37,2013-08-25 14:35:00,
2013-08-25 10:40:00,81.1,60.7,30.39,WSW,248,4.6,4.6,50,0.00,CLR,,0.00,1300.0,WeatherDisplay:10.37,2013-08-25 14:40:00,
2013-08-25 10:45:00,81.8,61.9,30.39,SW,230,1.0,6.0,51,0.00,CLR,,0.00,1400.0,WeatherDisplay:10.37,2013-08-25 14:45:00,
2013-08-25 10:50:00,82.2,61.2,30.39,WSW,248,4.0,4.0,49,0.00,CLR,,0.00,1400.0,WeatherDisplay:10.37,2013-08-25 14:50:00,
2013-08-25 10:55:00,80.8,59.3,30.39,SSW,203,5.0,6.0,48,0.00,CLR,,0.00,1500.0,WeatherDisplay:10.37,2013-08-25 14:55:00,
2013-08-25 11:00:00,81.4,60.4,30.39,South,176,3.0,6.0,49,0.00,CLR,,0.00,1600.0,WeatherDisplay:10.37,2013-08-25 15:00:00,
2013-08-25 11:05:00,81.0,60.0,30.39,SSE,158,6.9,6.9,49,0.00,CLR,,0.00,1600.0,WeatherDisplay:10.37,2013-08-25 15:05:00,
2013-08-25 11:10:00,80.0,59.7,30.39,South,190,6.0,8.0,50,0.00,CLR,,0.00,1600.0,WeatherDisplay:10.37,2013-08-25 15:10:00,
2013-08-25 11:15:00,81.6,62.3,30.39,SSW,201,2.0,6.0,52,0.00,CLR,,0.00,1600.0,WeatherDisplay:10.37,2013-08-25 15:15:00,
2013-08-25 11:20:00,82.6,62.1,30.39,SSW,208,3.0,5.0,50,0.00,CLR,,0.00,1600.0,WeatherDisplay:10.37,2013-08-25 15:20:00,
2013-08-25 11:25:00,83.8,62.1,30.39,SW,229,3.0,6.0,48,0.00,CLR,,0.00,1600.0,WeatherDisplay:10.37,2013-08-25 15:25:00,
2013-08-25 11:30:00,84.0,61.6,30.39,SSW,202,3.5,3.5,47,0.00,CLR,,0.00,1600.0,WeatherDisplay:10.37,2013-08-25 15:30:00,
2013-08-25 11:35:00,84.2,61.8,30.39,SSW,202,4.6,4.6,47,0.00,CLR,,0.00,1600.0,WeatherDisplay:10.37,2013-08-25 15:35:00,
2013-08-25 11:40:00,83.7,61.9,30.39,SSE,162,5.0,6.0,48,0.00,CLR,,0.00,1600.0,WeatherDisplay:10.37,2013-08-25 15:40:00,
2013-08-25 11:45:00,82.9,61.2,30.39,SSW,202,6.4,6.4,48,0.00,CLR,,0.00,1600.0,WeatherDisplay:10.37,2013-08-25 15:45:00,
2013-08-25 11:50:00,83.7,61.9,30.39,SSE,158,3.8,3.8,48,0.00,CLR,,0.00,1600.0,WeatherDisplay:10.37,2013-08-25 15:50:00,
2013-08-25 11:55:00,83.1,60.2,30.39,South,188,3.0,7.0,46,0.00,CLR,,0.00,1600.0,WeatherDisplay:10.37,2013-08-25 15:55:00,
2013-08-25 12:00:00,84.4,61.9,30.39,West,270,5.6,5.6,47,0.00,CLR,,0.00,1600.0,WeatherDisplay:10.37,2013-08-25 16:00:00,
2013-08-25 12:05:00,85.1,62.0,30.39,SSW,209,2.0,6.0,46,0.00,CLR,,0.00,1600.0,WeatherDisplay:10.37,2013-08-25 16:05:00,
2013-08-25 12:10:00,85.8,62.0,30.39,WSW,238,2.0,7.0,45,0.00,CLR,,0.00,1600.0,WeatherDisplay:10.37,2013-08-25 16:10:00,
2013-08-25 12:15:00,85.3,62.2,30.39,WSW,248,2.3,2.3,46,0.00,CLR,,0.00,1600.0,WeatherDisplay:10.37,2013-08-25 16:15:00,
2013-08-25 12:20:00,86.1,62.3,30.39,SSW,198,3.0,7.0,45,0.00,CLR,,0.00,1600.0,WeatherDisplay:10.37,2013-08-25 16:20:00,
2013-08-25 12:25:00,84.4,60.1,30.39,South,189,3.0,7.0,44,0.00,CLR,,0.00,1600.0,WeatherDisplay:10.37,2013-08-25 16:25:00,
2013-08-25 12:30:00,83.8,59.0,30.39,SSE,158,5.8,6.4,43,0.00,CLR,,0.00,1600.0,WeatherDisplay:10.37,2013-08-25 16:30:00,
2013-08-25 12:35:00,85.2,60.2,30.39,SSW,206,3.0,6.0,43,0.00,CLR,,0.00,1600.0,WeatherDisplay:10.37,2013-08-25 16:35:00,
2013-08-25 12:40:00,87.3,61.4,30.39,SSW,202,4.6,4.6,42,0.00,CLR,,0.00,1600.0,WeatherDisplay:10.37,2013-08-25 16:40:00,
2013-08-25 12:45:00,87.1,60.5,30.39,SSW,202,3.5,3.5,41,0.00,CLR,,0.00,1600.0,WeatherDisplay:10.37,2013-08-25 16:45:00,
2013-08-25 12:50:00,87.2,59.9,30.39,South,176,3.0,6.0,40,0.00,CLR,,0.00,1600.0,WeatherDisplay:10.37,2013-08-25 16:50:00,
2013-08-25 12:55:00,87.1,59.1,30.39,South,180,3.5,3.5,39,0.00,CLR,,0.00,1600.0,WeatherDisplay:10.37,2013-08-25 16:55:00,
2013-08-25 13:00:00,88.3,60.2,30.39,ENE,68,3.5,3.5,39,0.00,CLR,,0.00,1600.0,WeatherDisplay:10.37,2013-08-25 17:00:00,
2013-08-25 13:05:00,89.1,60.1,30.39,SW,220,3.0,6.0,38,0.00,CLR,,0.00,1600.0,WeatherDisplay:10.37,2013-08-25 17:05:00,
2013-08-25 13:10:00,86.4,58.5,30.39,SSW,202,6.9,6.9,39,0.00,CLR,,0.00,1600.0,WeatherDisplay:10.37,2013-08-25 17:10:00,
2013-08-25 13:15:00,86.5,58.6,30.39,South,180,9.8,9.8,39,0.00,CLR,,0.00,1600.0,WeatherDisplay:10.37,2013-08-25 17:15:00,
2013-08-25 13:20:00,86.7,58.8,30.39,SSW,205,2.0,10.0,39,0.00,CLR,,0.00,1600.0,WeatherDisplay:10.37,2013-08-25 17:20:00,
2013-08-25 13:25:00,87.0,59.1,30.39,SSW,211,3.0,10.0,39,0.00,CLR,,0.00,1600.0,WeatherDisplay:10.37,2013-08-25 17:25:00,
2013-08-25 13:30:00,88.9,59.2,30.39,ESE,112,3.5,3.5,37,0.00,CLR,,0.00,1600.0,WeatherDisplay:10.37,2013-08-25 17:30:00,
2013-08-25 13:35:00,88.3,58.8,30.39,WSW,247,5.0,7.0,37,0.00,CLR,,0.00,1600.0,WeatherDisplay:10.37,2013-08-25 17:35:00,
2013-08-25 13:40:00,88.2,57.1,30.39,WNW,292,8.1,8.1,35,0.00,CLR,,0.00,1600.0,WeatherDisplay:10.37,2013-08-25 17:40:00,
2013-08-25 13:45:00,88.0,57.7,30.36,WSW,252,5.0,10.0,36,0.00,CLR,,0.00,1400.0,WeatherDisplay:10.37,2013-08-25 17:45:00,
2013-08-25 13:50:00,85.6,56.4,30.36,ESE,112,8.1,8.1,37,0.00,CLR,,0.00,1200.0,WeatherDisplay:10.37,2013-08-25 17:50:00,
2013-08-25 13:55:00,86.7,57.3,30.36,WSW,248,4.6,4.6,37,0.00,CLR,,0.00,1300.0,WeatherDisplay:10.37,2013-08-25 17:55:00,
2013-08-25 14:00:00,85.2,56.0,30.36,WSW,243,7.0,13.0,37,0.00,CLR,,0.00,1300.0,WeatherDisplay:10.37,2013-08-25 18:00:00,
2013-08-25 14:05:00,85.3,56.8,30.36,South,180,5.8,5.8,38,0.00,CLR,,0.00,1100.0,WeatherDisplay:10.37,2013-08-25 18:05:00,
2013-08-25 14:10:00,85.3,57.5,30.36,South,190,6.0,9.0,39,0.00,CLR,,0.00,1100.0,WeatherDisplay:10.37,2013-08-25 18:10:00,
2013-08-25 14:15:00,87.1,56.1,30.36,SSW,201,3.0,6.0,35,0.00,CLR,,0.00,1100.0,WeatherDisplay:10.37,2013-08-25 18:15:00,
2013-08-25 14:20:00,86.2,56.1,30.36,WSW,248,6.9,6.9,36,0.00,CLR,,0.00,1100.0,WeatherDisplay:10.37,2013-08-25 18:20:00,
2013-08-25 14:25:00,87.1,57.7,30.36,WNW,292,12.3,12.3,37,0.00,CLR,,0.00,1100.0,WeatherDisplay:10.37,2013-08-25 18:25:00,
2013-08-25 14:30:00,88.5,57.4,30.36,WNW,292,8.1,8.1,35,0.00,CLR,,0.00,1100.0,WeatherDisplay:10.37,2013-08-25 18:30:00,
2013-08-25 14:35:00,87.1,56.9,30.36,SSE,158,8.1,8.1,36,0.00,CLR,,0.00,1100.0,WeatherDisplay:10.37,2013-08-25 18:35:00,
2013-08-25 14:39:00,86.7,56.6,30.36,SW,225,10.4,10.4,36,0.00,CLR,,0.00,1100.0,WeatherDisplay:10.37,2013-08-25 18:39:00,
2013-08-25 14:40:00,86.7,56.6,30.36,SW,225,10.4,10.4,36,0.00,CLR,,0.00,1100.0,WeatherDisplay:10.37,2013-08-25 18:40:00,
2013-08-25 14:45:00,86.7,56.6,30.36,SW,225,10.4,10.4,36,0.00,CLR,,0.00,1100.0,WeatherDisplay:10.37,2013-08-25 18:45:00,
2013-08-25 15:17:00,86.7,56.6,30.36,SW,225,10.4,10.4,36,0.00,CLR,,0.00,1100.0,WeatherDisplay:10.37,2013-08-25 19:17:00,
2013-08-25 15:36:00,86.7,56.6,30.36,SW,225,10.4,10.4,36,0.00,CLR,,0.00,1100.0,WeatherDisplay:10.37,2013-08-25 19:36:00,
2013-08-25 15:41:00,86.7,56.6,30.36,SW,225,10.4,10.4,36,0.00,CLR,,0.00,1100.0,WeatherDisplay:10.37,2013-08-25 19:41:00,
2013-08-25 15:46:00,86.7,56.6,30.36,SW,225,10.4,10.4,36,0.00,CLR,,0.00,1100.0,WeatherDisplay:10.37,2013-08-25 19:46:00,
2013-08-25 15:58:00,86.7,56.6,30.36,SW,225,10.4,10.4,36,0.00,CLR,,0.00,1100.0,WeatherDisplay:10.37,2013-08-25 19:58:00,
2013-08-25 16:43:00,86.7,56.6,30.36,SW,225,10.4,10.4,36,0.00,CLR,,0.00,1100.0,WeatherDisplay:10.37,2013-08-25 20:43:00,
2013-08-25 17:32:00,86.7,56.6,30.36,SW,225,10.4,10.4,36,0.00,CLR,,0.00,1100.0,WeatherDisplay:10.37,2013-08-25 21:32:00,
2013-08-25 22:24:00,86.8,75.4,30.36,SE,135,10.4,10.4,69,0.00,CLR,,0.00,0.0,WeatherDisplay:10.37,2013-08-26 02:24:00,
2013-08-25 22:30:00,86.8,75.4,30.36,ESE,112,10.4,10.4,69,0.00,CLR,,0.00,0.0,WeatherDisplay:10.37,2013-08-26 02:30:00,
2013-08-25 22:37:00,86.8,75.4,30.36,ESE,112,10.4,10.4,69,0.00,CLR,,0.00,0.0,WeatherDisplay:10.37,2013-08-26 02:37:00,
2013-08-25 22:42:00,68.9,58.3,29.24,ESE,112,3.1,3.1,69,0.00,CLR,,0.00,0.0,WeatherDisplay:10.37,2013-08-26 02:42:00,
2013-08-25 22:47:00,69.1,58.5,30.33,ESE,112,3.5,3.5,69,0.00,CLR,,0.00,0.0,WeatherDisplay:10.37,2013-08-26 02:47:00,
2013-08-25 22:52:00,68.9,58.3,30.33,SE,135,2.3,2.3,69,0.00,CLR,,0.00,0.0,WeatherDisplay:10.37,2013-08-26 02:52:00,
2013-08-25 22:57:00,68.7,58.1,30.33,SE,135,2.3,2.3,69,0.00,CLR,,0.00,0.0,WeatherDisplay:10.37,2013-08-26 02:57:00,
2013-08-25 23:02:00,68.7,58.1,30.33,ESE,112,2.3,2.3,69,0.00,CLR,,0.00,0.0,WeatherDisplay:10.37,2013-08-26 03:02:00,
2013-08-25 23:07:00,68.5,58.0,30.33,ESE,112,2.3,2.3,69,0.00,CLR,,0.00,0.0,WeatherDisplay:10.37,2013-08-26 03:07:00,
2013-08-25 23:12:00,68.4,57.8,30.30,ESE,112,2.3,2.3,69,0.00,CLR,,0.00,0.0,WeatherDisplay:10.37,2013-08-26 03:12:00,
2013-08-25 23:17:00,68.4,57.8,30.30,SE,135,2.4,2.6,69,0.00,CLR,,0.00,0.0,WeatherDisplay:10.37,2013-08-26 03:17:00,
2013-08-25 23:22:00,68.4,57.8,30.30,SSE,158,2.3,2.3,69,0.00,CLR,,0.00,0.0,WeatherDisplay:10.37,2013-08-26 03:22:00,
2013-08-25 23:27:00,68.4,57.8,30.30,SSE,158,2.6,2.6,69,0.00,CLR,,0.00,0.0,WeatherDisplay:10.37,2013-08-26 03:27:00,
2013-08-25 23:33:00,68.4,57.8,30.30,SE,135,2.3,2.3,69,0.00,CLR,,0.00,0.0,WeatherDisplay:10.37,2013-08-26 03:33:00,
2013-08-25 23:38:00,68.2,57.6,30.30,SSE,158,2.6,2.6,69,0.00,CLR,,0.00,0.0,WeatherDisplay:10.37,2013-08-26 03:38:00,
2013-08-25 23:43:00,68.0,57.4,30.30,SSE,158,2.6,2.6,69,0.00,CLR,,0.00,0.0,WeatherDisplay:10.37,2013-08-26 03:43:00,
2013-08-25 23:48:00,68.0,57.4,30.30,SSE,158,2.0,2.0,69,0.00,CLR,,0.00,0.0,WeatherDisplay:10.37,2013-08-26 03:48:00,
2013-08-25 23:53:00,67.8,57.7,30.30,SSE,158,3.5,3.5,70,0.00,CLR,,0.00,0.0,WeatherDisplay:10.37,2013-08-26 03:53:00,
2013-08-25 23:58:00,67.8,57.7,30.30,SSW,202,1.2,2.0,70,0.00,CLR,,0.00,0.0,WeatherDisplay:10.37,2013-08-26 03:58:00,